Simultaneous Nadir Overpasses (SNOs) Predictions

Prediction of SNOs between LANDSAT-8 and METOP-B Satellite Orbit:

Table of predicted SNOs for the next 14.0 days since TLE Epoch: 1/28/2023
Index Date (LANDSAT-8) Time (LANDSAT-8) Lat,Lon (LANDSAT-8) SZA (LANDSAT-8 ) Date (METOP-B) Time (METOP-B) Lat,Lon (METOP-B) SZA (METOP-B ) Distance(km) Time Diff (sec)
1 01/29/2023 05:28:12 81.11, 137.52 100.73 01/29/2023 05:27:21 81.11, 137.48 100.71 0.81 51
2 01/29/2023 06:17:38 -81.14, -54.51 79.24 01/29/2023 06:18:00 -81.14, -54.49 79.23 0.34 22
3 02/01/2023 01:02:27 81.12,-155.93 99.96 02/01/2023 01:01:41 81.11,-156.09 99.93 2.97 46
4 02/01/2023 01:51:53 -81.14, 12.06 80.00 02/01/2023 01:52:20 -81.14, 11.97 80.00 1.61 27
5 02/03/2023 20:36:42 81.12, -89.59 99.13 02/03/2023 20:36:01 81.11, -89.74 99.10 2.67 41
6 02/03/2023 21:26:08 -81.14, 78.42 80.83 02/03/2023 21:26:40 -81.14, 78.36 80.83 1.05 32
7 02/06/2023 16:10:55 81.12, -23.08 98.29 02/06/2023 16:10:19 81.12, -23.08 98.27 0.18 36
8 02/06/2023 17:00:21 -81.14, 144.94 81.67 02/06/2023 17:00:58 -81.15, 145.05 81.65 1.86 37
9 02/09/2023 11:45:09 81.11, 43.22 97.38 02/09/2023 11:44:39 81.11, 43.12 97.36 1.67 30



Historial Predications of SNOs between LANDSAT-8 and METOP-B
